| time (UTC) | temp F | wind direction | speed knots | gust knots | rain 1hr in | rain 24hr in | rain mn in | humidity % | barometer mb |
| 20260505224003 | 81 | 239 | 2.6 | 8.7 | 0.00 | 0.00 | 0.00 | 55 | 1014.0 |
| 20260505223505 | 81 | 182 | 2.6 | 9.6 | 0.00 | 0.00 | 0.00 | 54 | 1013.9 |
| 20260505223013 | 81 | 265 | 2.6 | 9.6 | 0.00 | 0.00 | 0.00 | 53 | 1013.9 |
| 20260505222505 | 81 | 199 | 2.6 | 9.6 | 0.00 | 0.00 | 0.00 | 52 | 1014.0 |
| 20260505222003 | 82 | 205 | 4.3 | 8.7 | 0.00 | 0.00 | 0.00 | 52 | 1013.9 |
| 20260505221512 | 82 | 207 | 0.9 | 5.2 | 0.00 | 0.00 | 0.00 | 54 | 1013.8 |
| 20260505221004 | 82 | 336 | 1.7 | 7.0 | 0.00 | 0.00 | 0.00 | 53 | 1013.8 |
| 20260505220504 | 82 | 174 | 1.7 | 7.0 | 0.00 | 0.00 | 0.00 | 52 | 1013.7 |
| 20260505220012 | 82 | 194 | 2.6 | 7.8 | 0.00 | 0.00 | 0.00 | 52 | 1013.8 |
| 20260505215504 | 82 | 197 | 1.7 | 9.6 | 0.00 | 0.00 | 0.00 | 53 | 1013.8 |
| 20260505215004 | 82 | 147 | 4.3 | 9.6 | 0.00 | 0.00 | 0.00 | 53 | 1013.7 |
| 20260505214508 | 81 | 275 | 4.3 | 10.4 | 0.00 | 0.00 | 0.00 | 54 | 1013.7 |
| 20260505214003 | 81 | 148 | 1.7 | 10.4 | 0.00 | 0.00 | 0.00 | 53 | 1013.7 |
| 20260505213506 | 81 | 181 | 5.2 | 9.6 | 0.00 | 0.00 | 0.00 | 53 | 1013.6 |
| 20260505213021 | 81 | 177 | 3.5 | 12.2 | 0.00 | 0.00 | 0.00 | 53 | 1013.6 |
| 20260505212508 | 81 | 155 | 4.3 | 12.2 | 0.00 | 0.00 | 0.00 | 53 | 1013.7 |
| 20260505212006 | 81 | 178 | 3.5 | 11.3 | 0.00 | 0.00 | 0.00 | 50 | 1013.7 |
| 20260505211512 | 82 | 187 | 5.2 | 11.3 | 0.00 | 0.00 | 0.00 | 52 | 1013.8 |
| 20260505211003 | 82 | 150 | 2.6 | 9.6 | 0.00 | 0.00 | 0.00 | 51 | 1013.9 |
| 20260505210503 | 82 | 191 | 1.7 | 7.8 | 0.00 | 0.00 | 0.00 | 51 | 1013.8 |
| 20260505210014 | 82 | 214 | 2.6 | 10.4 | 0.00 | 0.00 | 0.00 | 52 | 1013.8 |
| 20260505205503 | 82 | 189 | 6.1 | 10.4 | 0.00 | 0.00 | 0.00 | 51 | 1013.8 |
| 20260505205007 | 83 | 205 | 4.3 | 7.8 | 0.00 | 0.00 | 0.00 | 50 | 1013.8 |
| 20260505204515 | 82 | 241 | 2.6 | 5.2 | 0.00 | 0.00 | 0.00 | 51 | 1013.9 |
| 20260505204010 | 82 | 271 | 1.7 | 10.4 | 0.00 | 0.00 | 0.00 | 53 | 1014.0 |
| 20260505203502 | 82 | 80 | 2.6 | 10.4 | 0.00 | 0.00 | 0.00 | 52 | 1014.1 |
| 20260505203025 | 82 | 277 | 3.5 | 11.3 | 0.00 | 0.00 | 0.00 | 50 | 1014.1 |
| 20260505202503 | 82 | 192 | 3.5 | 12.2 | 0.00 | 0.00 | 0.00 | 52 | 1014.1 |
| 20260505202006 | 82 | 260 | 5.2 | 12.2 | 0.00 | 0.00 | 0.00 | 50 | 1014.2 |
| 20260505201517 | 82 | 135 | 0.9 | 8.7 | 0.00 | 0.00 | 0.00 | 52 | 1014.2 |
| 20260505201006 | 82 | 198 | 1.7 | 8.7 | 0.00 | 0.00 | 0.00 | 48 | 1014.3 |
| 20260505200505 | 83 | 246 | 4.3 | 8.7 | 0.00 | 0.00 | 0.00 | 48 | 1014.2 |
| 20260505200014 | 82 | 247 | 2.6 | 9.6 | 0.00 | 0.00 | 0.00 | 50 | 1014.3 |
| 20260505195503 | 83 | 202 | 3.5 | 9.6 | 0.00 | 0.00 | 0.00 | 48 | 1014.4 |
| 20260505195006 | 83 | 186 | 1.7 | 9.6 | 0.00 | 0.00 | 0.00 | 51 | 1014.3 |
| 20260505194515 | 83 | 173 | 2.6 | 9.6 | 0.00 | 0.00 | 0.00 | 51 | 1014.4 |
| 20260505194003 | 83 | 271 | 2.6 | 10.4 | 0.00 | 0.00 | 0.00 | 50 | 1014.5 |
| 20260505193502 | 82 | 279 | 1.7 | 10.4 | 0.00 | 0.00 | 0.00 | 52 | 1014.6 |
| 20260505193016 | 82 | 292 | 1.7 | 6.1 | 0.00 | 0.00 | 0.00 | 52 | 1014.7 |
| 20260505192505 | 82 | 209 | 1.7 | 8.7 | 0.00 | 0.00 | 0.00 | 52 | 1014.8 |
| 20260505192007 | 81 | 288 | 2.6 | 8.7 | 0.00 | 0.00 | 0.00 | 54 | 1014.9 |
| 20260505191514 | 81 | 199 | 4.3 | 7.8 | 0.00 | 0.00 | 0.00 | 53 | 1015.0 |
| 20260505191003 | 82 | 196 | 3.5 | 10.4 | 0.00 | 0.00 | 0.00 | 51 | 1015.1 |
| 20260505190504 | 82 | 252 | 3.5 | 10.4 | 0.00 | 0.00 | 0.00 | 53 | 1015.1 |
| 20260505190026 | 82 | 186 | 5.2 | 7.8 | 0.00 | 0.00 | 0.00 | 52 | 1015.1 |
| 20260505185507 | 82 | 302 | 1.7 | 7.0 | 0.00 | 0.00 | 0.00 | 52 | 1015.2 |
| 20260505185009 | 82 | 217 | 3.5 | 7.0 | 0.00 | 0.00 | 0.00 | 55 | 1015.2 |
| 20260505184516 | 81 | 239 | 1.7 | 8.7 | 0.00 | 0.00 | 0.00 | 53 | 1015.4 |
| 20260505184004 | 81 | 269 | 5.2 | 8.7 | 0.00 | 0.00 | 0.00 | 52 | 1015.5 |
| 20260505183503 | 81 | 181 | 3.5 | 8.7 | 0.00 | 0.00 | 0.00 | 52 | 1015.5 |
| 20260505183016 | 81 | 148 | 2.6 | 11.3 | 0.00 | 0.00 | 0.00 | 55 | 1015.4 |
| 20260505182503 | 80 | 138 | 1.7 | 11.3 | 0.00 | 0.00 | 0.00 | 54 | 1015.5 |
| 20260505182006 | 80 | 190 | 3.5 | 10.4 | 0.00 | 0.00 | 0.00 | 53 | 1015.6 |
| 20260505181514 | 80 | 205 | 1.7 | 7.0 | 0.00 | 0.00 | 0.00 | 55 | 1015.6 |
| 20260505181003 | 79 | 165 | 3.5 | 7.0 | 0.00 | 0.00 | 0.00 | 54 | 1015.7 |
| 20260505180508 | 79 | 172 | 1.7 | 7.8 | 0.00 | 0.00 | 0.00 | 57 | 1015.7 |
| 20260505180015 | 79 | 203 | 2.6 | 7.8 | 0.00 | 0.00 | 0.00 | 57 | 1015.8 |
| 20260505175504 | 79 | 221 | 1.7 | 5.2 | 0.00 | 0.00 | 0.00 | 59 | 1015.8 |
| 20260505175007 | 78 | 246 | 2.6 | 8.7 | 0.00 | 0.00 | 0.00 | 57 | 1015.8 |
| 20260505174518 | 78 | 186 | 3.5 | 8.7 | 0.00 | 0.00 | 0.00 | 56 | 1015.8 |
| 20260505174007 | 78 | 140 | 4.3 | 8.7 | 0.00 | 0.00 | 0.00 | 56 | 1015.8 |
| 20260505173503 | 79 | 167 | 2.6 | 9.6 | 0.00 | 0.00 | 0.00 | 56 | 1015.7 |
| 20260505173029 | 79 | 182 | 2.6 | 9.6 | 0.00 | 0.00 | 0.00 | 56 | 1015.7 |
| 20260505172504 | 79 | 134 | 3.5 | 9.6 | 0.00 | 0.00 | 0.00 | 57 | 1015.8 |
| 20260505172007 | 79 | 257 | 1.7 | 8.7 | 0.00 | 0.00 | 0.00 | 56 | 1015.8 |
| 20260505171527 | 79 | 248 | 2.6 | 8.7 | 0.00 | 0.00 | 0.00 | 58 | 1015.9 |
| 20260505171005 | 78 | 178 | 0.9 | 7.0 | 0.00 | 0.00 | 0.00 | 59 | 1015.9 |
| 20260505170506 | 78 | 158 | 4.3 | 7.0 | 0.00 | 0.00 | 0.00 | 57 | 1015.9 |
| 20260505170021 | 78 | 162 | 1.7 | 6.1 | 0.00 | 0.00 | 0.00 | 58 | 1016.0 |
| 20260505165509 | 77 | 128 | 2.6 | 6.1 | 0.00 | 0.00 | 0.00 | 57 | 1016.1 |
| 20260505165006 | 77 | 205 | 2.6 | 4.3 | 0.00 | 0.00 | 0.00 | 58 | 1016.1 |
| 20260505164520 | 77 | 223 | 1.7 | 7.8 | 0.00 | 0.00 | 0.00 | 58 | 1016.2 |
| 20260505164008 | 77 | 177 | 2.6 | 7.8 | 0.00 | 0.00 | 0.00 | 58 | 1016.4 |
| 20260505163504 | 76 | 187 | 5.2 | 7.8 | 0.00 | 0.00 | 0.00 | 59 | 1016.1 |
| 20260505163019 | 76 | 232 | 1.7 | 7.8 | 0.00 | 0.00 | 0.00 | 58 | 1016.1 |
| 20260505162506 | 76 | 136 | 2.6 | 8.7 | 0.00 | 0.00 | 0.00 | 58 | 1016.2 |
| 20260505162005 | 76 | 189 | 5.2 | 8.7 | 0.00 | 0.00 | 0.00 | 58 | 1016.2 |
| 20260505161519 | 77 | 128 | 5.2 | 8.7 | 0.00 | 0.00 | 0.00 | 59 | 1016.2 |
| 20260505161007 | 76 | 153 | 0.9 | 10.4 | 0.00 | 0.00 | 0.00 | 58 | 1016.2 |
| 20260505160510 | 76 | 227 | 2.6 | 10.4 | 0.00 | 0.00 | 0.00 | 59 | 1016.4 |
| 20260505153005 | 74 | 152 | 1.7 | 8.7 | 0.00 | 0.00 | 0.00 | 61 | 1016.5 |
| 20260505152504 | 74 | 121 | 4.3 | 8.7 | 0.00 | 0.00 | 0.00 | 62 | 1016.5 |
| 20260505152004 | 74 | 57 | 2.6 | 4.3 | 0.00 | 0.00 | 0.00 | 62 | 1016.5 |
| 20260505151509 | 74 | 238 | 1.7 | 2.6 | 0.00 | 0.00 | 0.00 | 60 | 1016.6 |
| 20260505151004 | 73 | 184 | 0.9 | 4.3 | 0.00 | 0.00 | 0.00 | 61 | 1016.7 |
| 20260505150507 | 73 | 107 | 2.6 | 6.1 | 0.00 | 0.00 | 0.00 | 60 | 1016.6 |
| 20260505140503 | 70 | 113 | 5.2 | 9.6 | 0.00 | 0.00 | 0.00 | 68 | 1016.3 |
| 20260505125005 | 60 | 90 | 0.9 | 2.6 | 0.00 | 0.00 | 0.00 | 82 | 1016.2 |
| 20260505124519 | 59 | 49 | 0.0 | 2.6 | 0.00 | 0.00 | 0.00 | 83 | 1016.3 |
| 20260505124005 | 59 | 166 | 0.0 | 0.0 | 0.00 | 0.00 | 0.00 | 84 | 1016.4 |
| 20260505123505 | 57 | 126 | 0.0 | 0.0 | 0.00 | 0.00 | 0.00 | 86 | 1016.4 |
| 20260505123023 | 57 | 139 | 0.0 | 0.0 | 0.00 | 0.00 | 0.00 | 87 | 1016.5 |
| 20260505122507 | 56 | 82 | 0.0 | 0.0 | 0.00 | 0.00 | 0.00 | 90 | 1016.3 |
| 20260505122011 | 55 | 139 | 0.0 | 0.0 | 0.00 | 0.00 | 0.00 | 90 | 1016.2 |
| 20260505121503 | 54 | 120 | 0.0 | 0.0 | 0.00 | 0.00 | 0.00 | 92 | 1016.2 |
| 20260505121003 | 53 | 345 | 0.0 | 0.0 | 0.00 | 0.00 | 0.00 | 93 | 1016.2 |
| 20260505120503 | 53 | 352 | 0.0 | 0.9 | 0.00 | 0.00 | 0.00 | 93 | 1016.1 |
| 20260505120033 | 52 | 352 | 0.0 | 0.9 | 0.00 | 0.00 | 0.00 | 92 | 1016.1 |
| 20260505115502 | 52 | 176 | 0.0 | 0.9 | 0.00 | 0.00 | 0.00 | 93 | 1015.9 |
| 20260505115003 | 51 | 25 | 0.0 | 0.0 | 0.00 | 0.00 | 0.00 | 93 | 1015.9 |
| 20260505114515 | 51 | 334 | 0.0 | 0.0 | 0.00 | 0.00 | 0.00 | 93 | 1015.8 |
| 20260505114004 | 51 | 9 | 0.0 | 0.9 | 0.00 | 0.00 | 0.00 | 94 | 1015.8 |
| 20260505113506 | 50 | 304 | 0.0 | 0.9 | 0.00 | 0.00 | 0.00 | 93 | 1015.7 |
| 20260505113020 | 50 | 304 | 0.0 | 0.9 | 0.00 | 0.00 | 0.00 | 94 | 1015.7 |
| 20260505112506 | 50 | 315 | 0.0 | 0.0 | 0.00 | 0.00 | 0.00 | 94 | 1015.7 |
| 20260505112007 | 50 | 87 | 0.0 | 0.0 | 0.00 | 0.00 | 0.00 | 95 | 1015.6 |
| 20260505111526 | 50 | 84 | 0.0 | 0.0 | 0.00 | 0.00 | 0.00 | 95 | 1015.5 |
| 20260505111009 | 49 | 94 | 0.0 | 0.0 | 0.00 | 0.00 | 0.00 | 95 | 1015.5 |
| 20260505110502 | 49 | 97 | 0.0 | 0.0 | 0.00 | 0.00 | 0.00 | 95 | 1015.4 |
| 20260505102010 | 47 | 74 | 0.0 | 0.0 | 0.00 | 0.00 | 0.00 | 95 | 1015.2 |
| 20260505101526 | 47 | 113 | 0.0 | 0.0 | 0.00 | 0.00 | 0.00 | 94 | 1015.1 |
| 20260505101010 | 47 | 113 | 0.0 | 0.0 | 0.00 | 0.00 | 0.00 | 94 | 1015.3 |
| 20260505100508 | 47 | 113 | 0.0 | 0.0 | 0.00 | 0.00 | 0.00 | 94 | 1015.1 |
| 20260505100028 | 48 | 113 | 0.0 | 0.0 | 0.00 | 0.00 | 0.00 | 94 | 1015.1 |
| 20260505095504 | 48 | 113 | 0.0 | 0.0 | 0.00 | 0.00 | 0.00 | 94 | 1015.1 |
| 20260505095003 | 48 | 113 | 0.0 | 0.0 | 0.00 | 0.00 | 0.00 | 94 | 1015.0 |
| 20260505094511 | 48 | 113 | 0.0 | 0.0 | 0.00 | 0.00 | 0.00 | 94 | 1015.0 |
| 20260505094003 | 48 | 113 | 0.0 | 0.0 | 0.00 | 0.00 | 0.00 | 95 | 1015.1 |
| 20260505093503 | 48 | 113 | 0.0 | 0.0 | 0.00 | 0.00 | 0.00 | 95 | 1015.0 |
| 20260505093017 | 48 | 113 | 0.0 | 0.0 | 0.00 | 0.00 | 0.00 | 94 | 1015.0 |
| 20260505092504 | 48 | 113 | 0.0 | 0.0 | 0.00 | 0.00 | 0.00 | 93 | 1014.7 |
| 20260505092007 | 48 | 113 | 0.0 | 0.0 | 0.00 | 0.00 | 0.00 | 93 | 1014.6 |
| 20260505091527 | 49 | 113 | 0.0 | 0.0 | 0.00 | 0.00 | 0.00 | 93 | 1014.4 |
| 20260505091009 | 49 | 113 | 0.0 | 0.0 | 0.00 | 0.00 | 0.00 | 94 | 1014.4 |
| 20260505090507 | 49 | 113 | 0.0 | 0.0 | 0.00 | 0.00 | 0.00 | 94 | 1014.3 |
| 20260505090039 | 49 | 113 | 0.0 | 0.0 | 0.00 | 0.00 | 0.00 | 96 | 1014.4 |
| 20260505085512 | 49 | 113 | 0.0 | 0.0 | 0.00 | 0.00 | 0.00 | 95 | 1014.3 |
| 20260505085008 | 48 | 113 | 0.0 | 0.0 | 0.00 | 0.00 | 0.00 | 94 | 1014.2 |
| 20260505084512 | 48 | 113 | 0.0 | 0.0 | 0.00 | 0.00 | 0.00 | 94 | 1014.2 |
| 20260505084004 | 48 | 113 | 0.0 | 0.0 | 0.00 | 0.00 | 0.00 | 93 | 1014.3 |
| 20260505083507 | 48 | 113 | 0.0 | 0.0 | 0.00 | 0.00 | 0.00 | 93 | 1014.2 |
| 20260505083017 | 48 | 180 | 0.0 | 0.0 | 0.00 | 0.00 | 0.00 | 93 | 1014.3 |
| 20260505082504 | 49 | 180 | 0.0 | 0.0 | 0.00 | 0.00 | 0.00 | 94 | 1014.3 |
| 20260505082007 | 49 | 180 | 0.0 | 0.0 | 0.00 | 0.00 | 0.00 | 94 | 1014.2 |
| 20260505081521 | 48 | 180 | 0.0 | 0.0 | 0.00 | 0.00 | 0.00 | 94 | 1014.3 |
| 20260505081007 | 48 | 180 | 0.0 | 0.0 | 0.00 | 0.00 | 0.00 | 93 | 1014.4 |
| 20260505080507 | 49 | 180 | 0.0 | 0.0 | 0.00 | 0.00 | 0.00 | 93 | 1014.3 |
| 20260505080023 | 49 | 180 | 0.0 | 0.0 | 0.00 | 0.00 | 0.00 | 93 | 1014.2 |
| 20260505075509 | 49 | 180 | 0.0 | 0.0 | 0.00 | 0.00 | 0.00 | 93 | 1014.2 |
| 20260505075006 | 49 | 180 | 0.0 | 0.0 | 0.00 | 0.00 | 0.00 | 94 | 1014.3 |
| 20260505074528 | 49 | 180 | 0.0 | 0.0 | 0.00 | 0.00 | 0.00 | 93 | 1014.2 |
| 20260505074011 | 49 | 180 | 0.0 | 0.0 | 0.00 | 0.00 | 0.00 | 93 | 1014.4 |
| 20260505073505 | 49 | 180 | 0.0 | 0.0 | 0.00 | 0.00 | 0.00 | 93 | 1014.5 |
| 20260505073024 | 49 | 180 | 0.0 | 0.0 | 0.00 | 0.00 | 0.00 | 93 | 1014.5 |
| 20260505072505 | 49 | 180 | 0.0 | 0.0 | 0.00 | 0.00 | 0.00 | 93 | 1014.4 |
| 20260505072005 | 49 | 180 | 0.0 | 0.0 | 0.00 | 0.00 | 0.00 | 93 | 1014.3 |
| 20260505071519 | 49 | 180 | 0.0 | 0.0 | 0.00 | 0.00 | 0.00 | 93 | 1014.4 |
| 20260505071006 | 49 | 180 | 0.0 | 0.0 | 0.00 | 0.00 | 0.00 | 92 | 1014.4 |
| 20260505070510 | 49 | 180 | 0.0 | 0.0 | 0.00 | 0.00 | 0.00 | 92 | 1014.4 |
| 20260505070024 | 49 | 180 | 0.0 | 0.0 | 0.00 | 0.00 | 0.00 | 92 | 1014.5 |
| 20260505065508 | 50 | 180 | 0.0 | 0.0 | 0.00 | 0.00 | 0.00 | 91 | 1014.4 |
| 20260505065008 | 50 | 180 | 0.0 | 0.0 | 0.00 | 0.00 | 0.00 | 91 | 1014.5 |
| 20260505064537 | 50 | 180 | 0.0 | 0.0 | 0.00 | 0.00 | 0.00 | 91 | 1014.6 |
| 20260505064008 | 50 | 180 | 0.0 | 0.0 | 0.00 | 0.00 | 0.00 | 91 | 1014.7 |
| 20260505063509 | 51 | 180 | 0.0 | 0.0 | 0.00 | 0.00 | 0.00 | 91 | 1014.7 |
| 20260505063029 | 51 | 180 | 0.0 | 0.0 | 0.00 | 0.00 | 0.00 | 91 | 1014.6 |
| 20260505062504 | 51 | 180 | 0.0 | 0.0 | 0.00 | 0.00 | 0.00 | 90 | 1014.8 |
| 20260505062011 | 51 | 180 | 0.0 | 0.0 | 0.00 | 0.00 | 0.00 | 91 | 1014.9 |
| 20260505061530 | 51 | 180 | 0.0 | 0.0 | 0.00 | 0.00 | 0.00 | 91 | 1014.7 |
| 20260505061004 | 51 | 180 | 0.0 | 0.0 | 0.00 | 0.00 | 0.00 | 91 | 1014.9 |
| 20260505060507 | 51 | 180 | 0.0 | 0.0 | 0.00 | 0.00 | 0.00 | 90 | 1015.0 |
| 20260505060023 | 51 | 180 | 0.0 | 0.0 | 0.00 | 0.00 | 0.00 | 89 | 1014.8 |
| 20260505055512 | 51 | 180 | 0.0 | 0.0 | 0.00 | 0.00 | 0.00 | 90 | 1014.9 |
| 20260505055010 | 51 | 180 | 0.0 | 0.0 | 0.00 | 0.00 | 0.00 | 89 | 1014.9 |
| 20260505054539 | 52 | 180 | 0.0 | 0.0 | 0.00 | 0.00 | 0.00 | 88 | 1015.0 |
| 20260505054007 | 52 | 180 | 0.0 | 0.0 | 0.00 | 0.00 | 0.00 | 88 | 1015.1 |
| 20260505053507 | 52 | 180 | 0.0 | 0.0 | 0.00 | 0.00 | 0.00 | 88 | 1015.1 |
| 20260505053010 | 52 | 180 | 0.0 | 0.0 | 0.00 | 0.00 | 0.00 | 88 | 1015.2 |
| 20260505052503 | 52 | 180 | 0.0 | 0.0 | 0.00 | 0.00 | 0.00 | 87 | 1015.1 |
| 20260505052003 | 53 | 180 | 0.0 | 0.0 | 0.00 | 0.00 | 0.00 | 86 | 1015.3 |
| 20260505051513 | 53 | 180 | 0.0 | 0.0 | 0.00 | 0.00 | 0.00 | 86 | 1015.3 |
| 20260505051009 | 53 | 180 | 0.0 | 0.0 | 0.00 | 0.00 | 0.00 | 86 | 1015.3 |
| 20260505050503 | 53 | 180 | 0.0 | 0.0 | 0.00 | 0.00 | 0.00 | 86 | 1015.2 |
| 20260505041514 | 55 | 209 | 0.0 | 0.0 | 0.00 | 0.00 | 0.00 | 84 | 1015.4 |
| 20260505041005 | 55 | 209 | 0.0 | 0.0 | 0.00 | 0.00 | 0.00 | 83 | 1015.6 |
| 20260505040503 | 55 | 209 | 0.0 | 0.0 | 0.00 | 0.00 | 0.00 | 83 | 1015.5 |
| 20260505040021 | 55 | 209 | 0.0 | 0.0 | 0.00 | 0.00 | 0.00 | 83 | 1015.6 |
| 20260505035507 | 55 | 209 | 0.0 | 0.0 | 0.00 | 0.00 | 0.00 | 82 | 1015.6 |
| 20260505035007 | 55 | 209 | 0.0 | 0.0 | 0.00 | 0.00 | 0.00 | 79 | 1015.8 |
| 20260505034523 | 56 | 209 | 0.0 | 0.0 | 0.00 | 0.00 | 0.00 | 76 | 1015.7 |
| 20260505034009 | 57 | 209 | 0.0 | 0.0 | 0.00 | 0.00 | 0.00 | 76 | 1015.7 |
| 20260505033506 | 57 | 209 | 0.0 | 0.0 | 0.00 | 0.00 | 0.00 | 74 | 1015.8 |
| 20260505033024 | 58 | 209 | 0.0 | 0.0 | 0.00 | 0.00 | 0.00 | 73 | 1015.9 |
| 20260505032507 | 59 | 209 | 0.0 | 0.0 | 0.00 | 0.00 | 0.00 | 72 | 1015.8 |
| 20260505032003 | 59 | 209 | 0.0 | 0.0 | 0.00 | 0.00 | 0.00 | 72 | 1015.9 |
| 20260505031530 | 59 | 209 | 0.0 | 0.0 | 0.00 | 0.00 | 0.00 | 72 | 1015.9 |
| 20260505031002 | 60 | 209 | 0.0 | 0.0 | 0.00 | 0.00 | 0.00 | 69 | 1015.9 |
| 20260505030505 | 60 | 209 | 0.0 | 0.0 | 0.00 | 0.00 | 0.00 | 68 | 1016.0 |
| 20260505030017 | 60 | 209 | 0.0 | 0.0 | 0.00 | 0.00 | 0.00 | 67 | 1016.0 |
| 20260505025504 | 60 | 209 | 0.0 | 0.0 | 0.00 | 0.00 | 0.00 | 67 | 1016.0 |
| 20260505025004 | 59 | 209 | 0.0 | 0.0 | 0.00 | 0.00 | 0.00 | 67 | 1016.0 |
| 20260505024532 | 59 | 209 | 0.0 | 0.0 | 0.00 | 0.00 | 0.00 | 70 | 1016.2 |
| 20260505024006 | 59 | 209 | 0.0 | 0.0 | 0.00 | 0.00 | 0.00 | 67 | 1016.2 |
| 20260505023507 | 59 | 209 | 0.0 | 0.0 | 0.00 | 0.00 | 0.00 | 68 | 1016.3 |
| 20260505023028 | 60 | 209 | 0.0 | 0.0 | 0.00 | 0.00 | 0.00 | 68 | 1016.3 |
| 20260505022506 | 60 | 209 | 0.0 | 0.0 | 0.00 | 0.00 | 0.00 | 66 | 1016.2 |
| 20260505022011 | 61 | 209 | 0.0 | 0.0 | 0.00 | 0.00 | 0.00 | 64 | 1016.2 |
| 20260505021528 | 61 | 209 | 0.0 | 0.0 | 0.00 | 0.00 | 0.00 | 63 | 1016.2 |
| 20260505021004 | 62 | 209 | 0.0 | 0.0 | 0.00 | 0.00 | 0.00 | 63 | 1016.1 |
| 20260505020503 | 62 | 209 | 0.0 | 0.0 | 0.00 | 0.00 | 0.00 | 62 | 1016.2 |
| 20260505020026 | 63 | 209 | 0.0 | 0.0 | 0.00 | 0.00 | 0.00 | 62 | 1016.2 |
| 20260505015508 | 63 | 209 | 0.0 | 0.0 | 0.00 | 0.00 | 0.00 | 60 | 1016.1 |
| 20260505015006 | 64 | 209 | 0.0 | 0.0 | 0.00 | 0.00 | 0.00 | 58 | 1016.1 |
| 20260505014527 | 64 | 209 | 0.0 | 0.0 | 0.00 | 0.00 | 0.00 | 57 | 1016.1 |
| 20260505014008 | 64 | 209 | 0.0 | 0.0 | 0.00 | 0.00 | 0.00 | 57 | 1016.0 |
| 20260505013514 | 64 | 209 | 0.0 | 0.0 | 0.00 | 0.00 | 0.00 | 56 | 1015.9 |
| 20260505013025 | 65 | 209 | 0.0 | 0.0 | 0.00 | 0.00 | 0.00 | 56 | 1015.8 |
| 20260505012507 | 65 | 209 | 0.0 | 1.7 | 0.00 | 0.00 | 0.00 | 56 | 1015.7 |
| 20260505012007 | 65 | 209 | 0.0 | 1.7 | 0.00 | 0.00 | 0.00 | 55 | 1015.7 |
| 20260505011533 | 66 | 161 | 0.0 | 0.9 | 0.00 | 0.00 | 0.00 | 54 | 1015.8 |
| 20260505011010 | 66 | 209 | 0.0 | 1.7 | 0.00 | 0.00 | 0.00 | 54 | 1015.8 |
| 20260505010513 | 67 | 209 | 0.0 | 2.6 | 0.00 | 0.00 | 0.00 | 53 | 1015.6 |
| 20260505010014 | 67 | 211 | 0.9 | 2.6 | 0.00 | 0.00 | 0.00 | 52 | 1015.6 |
| 20260505005504 | 67 | 196 | 0.0 | 1.7 | 0.00 | 0.00 | 0.00 | 52 | 1015.6 |
| 20260505005007 | 68 | 237 | 0.0 | 2.6 | 0.00 | 0.00 | 0.00 | 50 | 1015.5 |
| 20260505004539 | 68 | 217 | 0.0 | 2.6 | 0.00 | 0.00 | 0.00 | 50 | 1015.5 |
| 20260505004006 | 69 | 206 | 0.0 | 0.0 | 0.00 | 0.00 | 0.00 | 49 | 1015.6 |
| 20260505003506 | 69 | 206 | 0.0 | 0.0 | 0.00 | 0.00 | 0.00 | 48 | 1015.4 |
| 20260505003022 | 70 | 227 | 0.0 | 0.9 | 0.00 | 0.00 | 0.00 | 47 | 1015.4 |
| 20260505002511 | 70 | 227 | 0.0 | 2.6 | 0.00 | 0.00 | 0.00 | 46 | 1015.3 |
| 20260505002022 | 71 | 250 | 0.0 | 4.3 | 0.00 | 0.00 | 0.00 | 45 | 1015.2 |
| 20260505001525 | 71 | 234 | 0.0 | 4.3 | 0.00 | 0.00 | 0.00 | 44 | 1015.2 |
| 20260505001010 | 72 | 269 | 0.9 | 4.3 | 0.00 | 0.00 | 0.00 | 44 | 1015.1 |
| 20260505000508 | 72 | 263 | 0.9 | 4.3 | 0.00 | 0.00 | 0.00 | 43 | 1015.0 |
| 20260505000039 | 73 | 223 | 0.0 | 6.1 | 0.00 | 0.00 | 0.00 | 42 | 1015.0 |
| 20260504235507 | 73 | 252 | 2.6 | 7.0 | 0.00 | 0.00 | 0.00 | 42 | 1014.9 |
| 20260504235004 | 74 | 197 | 2.6 | 7.0 | 0.00 | 0.00 | 0.00 | 41 | 1015.0 |
| 20260504234514 | 74 | 111 | 1.7 | 5.2 | 0.00 | 0.00 | 0.00 | 41 | 1015.0 |
| 20260504234003 | 75 | 17 | 0.9 | 7.8 | 0.00 | 0.00 | 0.00 | 41 | 1015.0 |
| 20260504233508 | 76 | 208 | 1.7 | 7.8 | 0.00 | 0.00 | 0.00 | 40 | 1014.9 |
| 20260504233020 | 76 | 165 | 2.6 | 6.1 | 0.00 | 0.00 | 0.00 | 39 | 1014.8 |
| 20260504232507 | 77 | 264 | 1.7 | 5.2 | 0.00 | 0.00 | 0.00 | 40 | 1014.6 |
| 20260504232007 | 78 | 203 | 2.6 | 5.2 | 0.00 | 0.00 | 0.00 | 38 | 1014.5 |
| 20260504231522 | 78 | 103 | 0.0 | 5.2 | 0.00 | 0.00 | 0.00 | 38 | 1014.5 |
| 20260504231010 | 78 | 267 | 1.7 | 7.8 | 0.00 | 0.00 | 0.00 | 38 | 1014.4 |
| 20260504230507 | 78 | 222 | 2.6 | 7.8 | 0.00 | 0.00 | 0.00 | 37 | 1014.5 |
| 20260504230026 | 79 | 253 | 2.6 | 7.8 | 0.00 | 0.00 | 0.00 | 37 | 1014.4 |
| 20260504225509 | 79 | 180 | 2.6 | 7.0 | 0.00 | 0.00 | 0.00 | 36 | 1014.5 |
| 20260504225010 | 79 | 213 | 2.6 | 7.0 | 0.00 | 0.00 | 0.00 | 37 | 1014.4 |
| 20260504224527 | 80 | 248 | 2.6 | 7.0 | 0.00 | 0.00 | 0.00 | 36 | 1014.5 |